Regional Weather Roundup
Issued by NWS

Home | Current Version | Previous Version | Graphics & Text | Print | Product List | Glossary On
Versions: 1 2 3 4 5 6 7 8 9 10 11 12 13 14 15 16 17 18 19 20 21 22 23 24 25 26 27 28 29 30 31 32 33 34 35 36 37 38 39 40 41 42 43 44 45 46 47 48 49 50
000
ASUS43 KMKX 190611
RWRWI

WISCONSIN REGIONAL WEATHER ROUNDUP
NATIONAL WEATHER SERVICE MILWAUKEE/SULLIVAN WI
1200 AM CST FRI DEC 19 2014

NOTE: "FAIR" INDICATES FEW OR NO CLOUDS BELOW 12,000 FEET WITH NO
SIGNIFICANT WEATHER AND/OR OBSTRUCTIONS TO VISIBILITY.

WIZ001-002-006>008-014>016-023>028-190700-
NORTHWEST WISCONSIN

CITY           SKY/WX    TMP DP  RH WIND       PRES   REMARKS
SUPERIOR ARPT  CLOUDY    24  20  87 S6        30.27F WCI  17
6HR MIN TEMP:  24; 6HR MAX TEMP:  26;

ASHLAND        CLOUDY    21  18  88 CALM      30.29R
6HR MIN TEMP:  20; 6HR MAX TEMP:  23;

HAYWARD        CLOUDY    22  18  85 S5        30.25S WCI  16
6HR MIN TEMP:  22; 6HR MAX TEMP:  23;

SIREN          CLOUDY    23  19  87 S5        30.27S WCI  16
6HR MIN TEMP:  22; 6HR MAX TEMP:  23;

CUMBERLAND     CLOUDY    21  19  93 SE5       30.24F WCI  15
RICE LAKE      CLOUDY    23  20  89 S3        30.28S
6HR MIN TEMP:  23; 6HR MAX TEMP:  23;

CHETEK         CLOUDY    22  20  91 CALM      30.27S
6HR MIN TEMP:  22; 6HR MAX TEMP:  23;

LADYSMITH      CLOUDY    24  21  89 CALM      30.27S
6HR MIN TEMP:  23; 6HR MAX TEMP:  24;

EAU CLAIRE     CLOUDY    24  19  81 CALM      30.27S
6HR MIN TEMP:  23; 6HR MAX TEMP:  24;

MENOMONIE      CLOUDY    24  20  84 SE3       30.28S
6HR MIN TEMP:  24; 6HR MAX TEMP:  25;

NEW RICHMOND   CLOUDY    22  19  89 SW9       30.27S WCI  12
6HR MIN TEMP:  22; 6HR MAX TEMP:  23;

OSCEOLA        CLOUDY    23  19  84 S6        30.30S WCI  16
6HR MIN TEMP:  23; 6HR MAX TEMP:  23;

$$

WIZ003>005-009-010-017-018-190700-
NORTH CENTRAL WISCONSIN

CITY           SKY/WX    TMP DP  RH WIND       PRES   REMARKS
MANITOWISH WTR PTCLDY     2  -1  88 CALM      30.22S
6HR MIN TEMP:   1; 6HR MAX TEMP:  13;

ARBOR VITAE    PTCLDY     6   2  85 CALM      30.22S
6HR MIN TEMP:   6; 6HR MAX TEMP:  17;

WOODRUFF       PTCLDY     6   2  85 CALM      30.22S
6HR MIN TEMP:   6; 6HR MAX TEMP:  17;

RHINELANDER    PTCLDY     5   2  87 CALM      30.21F
6HR MIN TEMP:   3; 6HR MAX TEMP:  19;

EAGLE RIVER    LGT SNOW   3  -1  83 CALM      30.21F
6HR MIN TEMP:   2; 6HR MAX TEMP:  16;

LAND O LAKES   PTCLDY    -2  -6  84 CALM      30.22F
6HR MIN TEMP:  -2; 6HR MAX TEMP:  11;

PHILLIPS       CLOUDY    17  15  93 CALM      30.23S
6HR MIN TEMP:  17; 6HR MAX TEMP:  21;

TOMAHAWK       PTCLDY     4   1  86 CALM      30.23F
6HR MIN TEMP:   4; 6HR MAX TEMP:  13;

MEDFORD        CLOUDY    17  16  93 CALM      30.23S
6HR MIN TEMP:  17; 6HR MAX TEMP:  22;

MERRILL        PTCLDY    10   8  91 CALM      30.23F
6HR MIN TEMP:  10; 6HR MAX TEMP:  16;

$$

WIZ029-030-035-036-043>047-190700-
CENTRAL WISCONSIN

CITY           SKY/WX    TMP DP  RH WIND       PRES   REMARKS
WAUSAU         CLEAR     18  15  88 NW6       30.23F WCI  10
6HR MIN TEMP:  17; 6HR MAX TEMP:  22;

MOSINEE        CLEAR     18  18 100 CALM      30.25S
MARSHFIELD     CLOUDY    24  20  84 CALM      30.25R
6HR MIN TEMP:  21; 6HR MAX TEMP:  25;

STEVENS POINT  CLEAR     12  10  89 CALM      30.26S
6HR MIN TEMP:  12; 6HR MAX TEMP:  19;

WAUPACA        CLEAR     18  16  89 CALM      30.27S
6HR MIN TEMP:  18; 6HR MAX TEMP:  25;

WAUTOMA        CLEAR     15  13  92 CALM      30.28S
6HR MIN TEMP:  15; 6HR MAX TEMP:  27;

WISC RAPIDS    CLOUDY    19  15  84 CALM      30.28R
6HR MIN TEMP:  17; 6HR MAX TEMP:  24;

CAMP DOUGLAS   CLOUDY    25  24  99 W1        30.28R
6HR MIN TEMP:  24; 6HR MAX TEMP:  25;

$$

WIZ011>013-019>022-031-037>040-048>050-190700-
NORTHEAST WISCONSIN

CITY           SKY/WX    TMP DP  RH WIND       PRES   REMARKS
ANTIGO         CLEAR     11   9  93 CALM      30.22S
6HR MIN TEMP:  10; 6HR MAX TEMP:  19;

SHAWANO        PTCLDY    18  15  90 CALM      30.26F
6HR MIN TEMP:  18; 6HR MAX TEMP:  24;

OCONTO         CLEAR     15  15  98 CALM      30.27S
6HR MIN TEMP:  14; 6HR MAX TEMP:  20;

STURGEON BAY   CLEAR     21  16  79 N7        30.27S WCI  13
6HR MIN TEMP:  18; 6HR MAX TEMP:  21;

GREEN BAY      PTCLDY    20  18  92 NW3       30.26F
6HR MIN TEMP:  19; 6HR MAX TEMP:  22;

MANITOWOC      CLOUDY    24  21  88 NW9       30.26F WCI  14
6HR MIN TEMP:  20; 6HR MAX TEMP:  24;

APPLETON       CLEAR     19  18  93 W7        30.26S WCI  10
CLINTONVILLE   CLEAR     18  16  93 CALM      30.26S
OSHKOSH        CLEAR     21  16  81 W3        30.26S
6HR MIN TEMP:  20; 6HR MAX TEMP:  27;

$$

WIZ032>034-041-042-053>061-190700-
SOUTHWEST WISCONSIN

CITY           SKY/WX    TMP DP  RH WIND       PRES   REMARKS
LA CROSSE      CLOUDY    26  18  71 CALM      30.30R
6HR MIN TEMP:  26; 6HR MAX TEMP:  26;

SPARTA         CLOUDY    25  20  82 SE5       30.30R WCI  19
6HR MIN TEMP:  25; 6HR MAX TEMP:  25;

VIROQUA        CLOUDY    23  20  89 CALM      30.25S
6HR MIN TEMP:  23; 6HR MAX TEMP:  23;

BOSCOBEL       CLOUDY    26  18  71 CALM      30.30S
6HR MIN TEMP:  26; 6HR MAX TEMP:  27;

PRAIRIE DU CHI CLOUDY    26  18  70 CALM      30.30S
6HR MIN TEMP:  26; 6HR MAX TEMP:  27;

PLATTEVILLE    CLOUDY    25  20  83 CALM      30.28S
6HR MIN TEMP:  25; 6HR MAX TEMP:  26;

$$

WIZ056-057-062-063-064-067-068-190700-
SOUTH CENTRAL WISCONSIN

CITY           SKY/WX    TMP DP  RH WIND       PRES   REMARKS
REEDSBURG      CLOUDY    25  20  82 CALM      30.27S
6HR MIN TEMP:  25; 6HR MAX TEMP:  25;

BARABOO/DELLS  CLOUDY    25  20  81 CALM      30.26F
6HR MIN TEMP:  25; 6HR MAX TEMP:  26;

LONE ROCK      CLOUDY    29  18  63 W3        30.30R
6HR MIN TEMP:  29; 6HR MAX TEMP:  30;

MINERAL POINT  CLOUDY    27  21  80 CALM      30.26S
MADISON        CLOUDY    27  20  75 N3        30.27R
6HR MIN TEMP:  26; 6HR MAX TEMP:  28; 6HR PCP: TRACE;

MIDDLETON      CLOUDY    28  22  79 NE3       30.27S
6HR MIN TEMP:  27; 6HR MAX TEMP:  28;

WATERTOWN      CLOUDY    26  20  78 CALM      30.26S
6HR MIN TEMP:  26; 6HR MAX TEMP:  26;

MONROE         CLOUDY    27  23  86 CALM      30.25F
JANESVILLE     CLOUDY    30  25  80 CALM      30.27S
$$

WIZ051-052-058>065-066-070>072-190700-
SOUTHEAST WISCONSIN

CITY           SKY/WX    TMP DP  RH WIND       PRES   REMARKS
MILWAUKEE      FLURRIES  28  19  69 NW9       30.26S WCI  19
6HR MIN TEMP:  28; 6HR MAX TEMP:  29; 6HR PCP: TRACE;

WAUKESHA       CLOUDY    27  21  80 W5        30.27S WCI  21
MILWAUKEE/TIMM CLOUDY    28  21  74 NW3       30.27S
RACINE         CLOUDY    28  22  78 W7        30.27S WCI  21
6HR MIN TEMP:  28; 6HR MAX TEMP:  28;

BURLINGTON     CLOUDY    26  22  88 CALM      30.27R
6HR MIN TEMP:  26; 6HR MAX TEMP:  26;

KENOSHA        CLOUDY    28  22  78 W6        30.26S WCI  22
6HR MIN TEMP:  27; 6HR MAX TEMP:  28;

FOND DU LAC    CLEAR     19  15  84 CALM      30.27S
6HR MIN TEMP:  18; 6HR MAX TEMP:  28;

SHEBOYGAN      CLOUDY    23  18  81 NW5       30.26S WCI  17
6HR MIN TEMP:  19; 6HR MAX TEMP:  26;

WEST BEND      PTCLDY    23  19  86 CALM      30.25S
JUNEAU         CLEAR     21  18  91 CALM      30.27S
6HR MIN TEMP:  21; 6HR MAX TEMP:  26;

$$

LSZ147-162-190700-
LAKE SUPERIOR

STATION/POSITION TIME  TEMP    WIND        PRES    WAVE
                       AIR SEA DIR/SP/G            HT/PER
                 (UTC) (F)     (DEG/KT/KT) (MB)    (FT/S)
DEVILS ISLAND    0600   27     200/  7/  8 1026.4R
PORT WING        0540   23     170/  1/  2 1025.4S
SAXON HARBOR     0540   20      CALM  /  3 1025.4S
$$

LMZ867-665-643>646-190700-
LAKE MICHIGAN

STATION/POSITION TIME  TEMP    WIND        PRES    WAVE



USA.gov is the U.S. government's official web portal to all federal, state and local government web resources and services.